Showing default

SOCRAT, 44414

Orbit data source: Space-Track

SOCRAT, 44414 is a payload satellite owned by EXOLaunch (CIS) in SSO that was launched on Fri, 05 Jul 2019 UTC via a SOYUZ-2-1B launch vehicle from the Vostochny Cosmodrome (VOSTO). Payloads include a variety of satellites, spacecraft, and rockets equipped with specific instruments for various scientific and technological missions. These include communications satellites like Starlink; space stations such as the ISS; scientific satellites like the Hubble; Earth observation satellites from companies like Planet Labs, Umbra, and HawkEye 360; GPS; miniature CubeSats for education and research; and military/defense satellites.

Loading next visibility...
SOCRAT details
Identifier
44414, 2019-038AE
Orbit
SSO
Last TLE update9 hours ago
Origin
Flag of CISEXOLaunch (CIS)
ManufacturerEXOLaunch
MissionNon-operational Commercial Technology
Bus & MotorEXOL, Unknown motor
Mass30 kg wet, 30 kg dry
Launch date (UTC)
2019-07-05 (5 years ago)
Launch vehicle
SOYUZ-2-1B
Launch site
Vostochny Cosmodrome (VOSTO)
Object type
Payload
Rocket body
Debris
Shape & HBRBox, 0.3 m
Radar Cross Section0.015 m², Medium (>0.1 m² and < 1m²)

Expand to show TLE details & history

TLE from 9 hours ago
0 SOCRAT
1 44414U 19038AE  24361.10278903  .00080407  00000-0  10880-2 0  9992
2 44414  97.7044   8.0810 0011381 123.5040 236.7303 15.57376305303323
Epoch: 2024-12-26T02:28Z
Definitive object data (Epoch: 2024-12-26T02:28:00.972Z)
Latitude-0.00006°
Longitude-124.01004°
Altitude402.622 km
Speed7.667 km/s
True Right ascension00h 32m 19s
True Declination0° 00' 00"
Sunlit
Object was in daylight at TLE epoch
Visualization TLE readout
Latitude-66.15797°
Longitude38.66151°
Altitude424.624 km
Speed7.653 km/s
Apparent Right ascension21h 37m 24s
Apparent Declination-77° 31' 08"
Sunlit
Object is in daylight
Visualization observer readout
Local Sidereal Time10:35:22
Azimuth174.971° S
Elevation-51.905°
Doppler factor1
Orbital elements
Apogee altitude399.889 km
Perigee altitude384.478 km
Semi-major axis6,770.32 km
Eccentricity0.0011381
Inclination97.7044°
RAAN8.081°
Arg. of periapsis123.504°
True anomaly236.62134°
Mean anomaly236.7303°
Eccentric anomaly236.67581°
Mean motion3.89609 °/min
BSTAR0.001088
Orbital period92.4 mins
Loading maneuver chart data...

SOCRAT Visibility forecast

Observer location: undefined°, undefined

Span
Click to sort rows by Start time (UTC) header in descending order
Start Az.
Max El. time (UTC)
Max El. Az.
Max El.
End time (UTC)
End Az.
5 mins2024-12-26 13:49:03.855Z359.546° N2024-12-26 13:51:03.855Z308.844° NW37.779°2024-12-26 13:54:03.855Z207.716° SW
|